Jacksonville, FL

2:32 PM EST on December 08, 2016 (GMT -0500)
Jacksonville International

Weather History for KJAX - October, 2012

Change the Weather History Date:

Monday, October 15, 2012

  Actual Average Record
Temperature  
Mean Temperature 75 °F 71 °F  
Max Temperature 84 °F 81 °F 90 °F (1990)
Min Temperature 66 °F 61 °F 40 °F (1977)
Degree Days  
Heating Degree Days 0 1  
Month to date heating degree days 2 3  
Since 1 July heating degree days 2 3  
Cooling Degree Days 10 6  
Month to date cooling degree days 154 122  
Year to date cooling degree days 2666 2508  
Growing Degree Days 25 (Base 50)    
Moisture  
Dew Point 68 °F    
Average Humidity 78    
Maximum Humidity 100    
Minimum Humidity 55    
Precipitation  
Precipitation T in 0.13 in 2.24 in (1922)
Month to date precipitation 3.01 2.53  
Year to date precipitation 50.83 46.08  
Snow  
Snow 0.00 in 0.00 in 0.00 in (2002)
Month to date snowfall 0.0 0.0  
Since 1 July snowfall 0.0 0.0  
Since 1 September snowfall 0.0 0.0  
Snow Depth 0.00 in    
Sea Level Pressure  
Sea Level Pressure 29.91 in    
Wind  
Wind Speed 4 mph (WSW)    
Max Wind Speed 18 mph    
Max Gust Speed 24 mph    
Visibility 9 miles    
Events Rain    
T = Trace of Precipitation, MM = Missing Value Source: NWS Daily Summary

Daily Weather History Graph

Daily Weather History Graph

Search for Another Location

Airport or City:

Trip Planner

Search our weather history database for the weather conditions in past years. The results will help you decide how hot, cold, wet, or windy it might be!

Date:

Astronomy

Oct. 15, 2012 Rise Set
Actual Time 7:29 AM EDT 6:54 PM EDT
Civil Twilight 7:05 AM EDT 7:19 PM EDT
Nautical Twilight 6:37 AM EDT 7:47 PM EDT
Astronomical Twilight 6:09 AM EDT 8:15 PM EDT
Moon 7:34 AM EDT (10/15) 6:59 PM EDT (10/15)
Length of Visible Light 12h 14m
Length of Day
11h 25m
New Moon, 0% of the Moon is Illuminated
Oct 15
New Moon
Oct 21
First Quarter
Oct 29
Full
Nov 6
Last Quarter
Nov 13
New

Hourly Weather History & Observations

Time (EDT) Temp. Heat Index Dew Point Humidity Pressure Visibility Wind Dir Wind Speed Gust Speed Precip Events Conditions
12:56 AM 69.8 °F - 68.0 °F 94% 30.01 in 7.0 mi Calm Calm - N/A   Scattered Clouds
1:56 AM 68.0 °F - 66.0 °F 93% 30.00 in 7.0 mi Calm Calm - N/A   Partly Cloudy
2:56 AM 68.0 °F - 66.9 °F 96% 29.99 in 7.0 mi Calm Calm - N/A   Partly Cloudy
3:56 AM 68.0 °F - 66.0 °F 93% 29.96 in 8.0 mi Calm Calm - N/A   Partly Cloudy
4:56 AM 66.0 °F - 64.9 °F 96% 29.96 in 7.0 mi Calm Calm - N/A   Partly Cloudy
5:56 AM 66.2 °F - 64.4 °F 94% 29.95 in 7.0 mi WNW 3.5 mph - N/A   Scattered Clouds
6:56 AM 66.0 °F - 64.9 °F 96% 29.96 in 7.0 mi Calm Calm - N/A   Scattered Clouds
7:56 AM 66.2 °F - 66.2 °F 100% 29.96 in 6.0 mi Calm Calm - N/A   Mostly Cloudy
8:56 AM 71.1 °F - 68.0 °F 90% 29.98 in 8.0 mi Calm Calm - N/A   Mostly Cloudy
9:56 AM 73.9 °F - 70.0 °F 87% 29.99 in 9.0 mi Calm Calm - N/A   Mostly Cloudy
10:56 AM 78.1 °F - 71.1 °F 79% 29.98 in 10.0 mi WSW 5.8 mph - N/A   Mostly Cloudy
11:56 AM 80.1 °F 83.6 °F 71.1 °F 74% 29.96 in 10.0 mi SW 6.9 mph - N/A   Mostly Cloudy
12:56 PM 80.1 °F 83.6 °F 71.1 °F 74% 29.93 in 10.0 mi SW 6.9 mph - N/A   Mostly Cloudy
1:56 PM 80.6 °F 83.9 °F 69.8 °F 70% 29.89 in 10.0 mi WSW 6.9 mph - N/A   Mostly Cloudy
2:56 PM 82.0 °F 85.9 °F 70.0 °F 67% 29.86 in 10.0 mi SW 8.1 mph - N/A   Mostly Cloudy
3:56 PM 84.0 °F 87.8 °F 69.1 °F 61% 29.83 in 10.0 mi WSW 5.8 mph - N/A   Mostly Cloudy
4:56 PM 84.0 °F 86.5 °F 66.9 °F 56% 29.83 in 10.0 mi West 9.2 mph - N/A   Mostly Cloudy
5:56 PM 82.0 °F 84.9 °F 68.0 °F 62% 29.82 in 10.0 mi WSW 4.6 mph - N/A   Scattered Clouds
6:56 PM 77.0 °F - 69.8 °F 78% 29.82 in 10.0 mi SSW 3.5 mph - N/A   Scattered Clouds
7:56 PM 72.0 °F - 69.1 °F 91% 29.83 in 9.0 mi West 3.5 mph - N/A   Scattered Clouds
8:56 PM 72.0 °F - 69.1 °F 91% 29.84 in 10.0 mi Calm Calm - N/A   Scattered Clouds
9:56 PM 71.1 °F - 68.0 °F 90% 29.85 in 10.0 mi West 4.6 mph - N/A   Mostly Cloudy
10:56 PM 71.1 °F - 66.0 °F 84% 29.87 in 7.0 mi NNW 12.7 mph 21.9 mph 0.00 in Rain Light Rain
11:56 PM 69.1 °F - 66.9 °F 93% 29.86 in 10.0 mi Calm Calm - 0.00 in   Mostly Cloudy